owner,sensor,date,latitude,longitude,vertical_datum,sea_water_practical_salinity,qcFlag 
SCCF RECON,ioos:station:SCCF:56:1,2017-08-01T00:00:00Z,26.4645,-82.1044,1.71,27.36,1111122 
SCCF RECON,ioos:station:SCCF:56:1,2017-08-01T01:00:00Z,26.4645,-82.1044,1.74,27.31,1111122 
SCCF RECON,ioos:station:SCCF:56:1,2017-08-01T02:00:00Z,26.4645,-82.1044,1.72,27.43,1111122 
SCCF RECON,ioos:station:SCCF:56:1,2017-08-01T03:00:00Z,26.4645,-82.1044,1.73,27.47,1111122 
SCCF RECON,ioos:station:SCCF:56:1,2017-08-01T04:00:00Z,26.4645,-82.1044,1.66,26.95,1111122 
SCCF RECON,ioos:station:SCCF:56:1,2017-08-01T05:00:00Z,26.4645,-82.1044,1.67,26.85,1111122 
SCCF RECON,ioos:station:SCCF:56:1,2017-08-01T06:00:00Z,26.4645,-82.1044,1.599,26.59,1111122 
SCCF RECON,ioos:station:SCCF:56:1,2017-08-01T07:00:00Z,26.4645,-82.1044,1.681,26.5,1111122 
SCCF RECON,ioos:station:SCCF:56:1,2017-08-01T08:00:00Z,26.4645,-82.1044,1.69,26.57,1111122 
SCCF RECON,ioos:station:SCCF:56:1,2017-08-01T09:00:00Z,26.4645,-82.1044,1.763,27.12,1111122 
SCCF RECON,ioos:station:SCCF:56:1,2017-08-01T10:00:00Z,26.4645,-82.1044,1.83,27.44,1111122 
SCCF RECON,ioos:station:SCCF:56:1,2017-08-01T11:00:00Z,26.4645,-82.1044,1.9,27.44,1111122 
SCCF RECON,ioos:station:SCCF:56:1,2017-08-01T12:00:00Z,26.4645,-82.1044,1.95,27.51,1111122 
SCCF RECON,ioos:station:SCCF:56:1,2017-08-01T13:00:00Z,26.4645,-82.1044,1.93,27.36,1111122 
SCCF RECON,ioos:station:SCCF:56:1,2017-08-01T14:00:00Z,26.4645,-82.1044,1.89,27.37,1111122 
SCCF RECON,ioos:station:SCCF:56:1,2017-08-01T15:00:00Z,26.4645,-82.1044,1.81,27.18,1111122 
SCCF RECON,ioos:station:SCCF:56:1,2017-08-01T16:00:00Z,26.4645,-82.1044,1.73,26.77,1111122 
SCCF RECON,ioos:station:SCCF:56:1,2017-08-01T17:00:00Z,26.4645,-82.1044,1.62,26.51,1111122 
SCCF RECON,ioos:station:SCCF:56:1,2017-08-01T18:00:00Z,26.4645,-82.1044,1.51,26.02,1111122 
SCCF RECON,ioos:station:SCCF:56:1,2017-08-01T19:00:00Z,26.4645,-82.1044,1.41,25.65,1111122 
SCCF RECON,ioos:station:SCCF:56:1,2017-08-01T20:00:00Z,26.4645,-82.1044,1.331,25.34,1111122 
SCCF RECON,ioos:station:SCCF:56:1,2017-08-01T21:00:00Z,26.4645,-82.1044,1.33,25.36,1111122 
SCCF RECON,ioos:station:SCCF:56:1,2017-08-01T22:00:00Z,26.4645,-82.1044,1.419,25.62,1111122 
SCCF RECON,ioos:station:SCCF:56:1,2017-08-01T23:00:00Z,26.4645,-82.1044,1.57,27.44,1111122 
SCCF RECON,ioos:station:SCCF:56:1,2017-08-02T00:00:00Z,26.4645,-82.1044,1.62,27.21,1111122 
SCCF RECON,ioos:station:SCCF:56:1,2017-08-02T01:00:00Z,26.4645,-82.1044,1.68,27.16,1111122 
SCCF RECON,ioos:station:SCCF:56:1,2017-08-02T02:00:00Z,26.4645,-82.1044,1.67,26.75,1111122 
SCCF RECON,ioos:station:SCCF:56:1,2017-08-02T03:00:00Z,26.4645,-82.1044,1.65,26.92,1111122 
SCCF RECON,ioos:station:SCCF:56:1,2017-08-02T04:00:00Z,26.4645,-82.1044,1.67,27.01,1111122 
SCCF RECON,ioos:station:SCCF:56:1,2017-08-02T05:00:00Z,26.4645,-82.1044,1.71,27.18,1111122 
SCCF RECON,ioos:station:SCCF:56:1,2017-08-02T06:00:00Z,26.4645,-82.1044,1.74,27.64,1111122 
SCCF RECON,ioos:station:SCCF:56:1,2017-08-02T07:00:00Z,26.4645,-82.1044,1.67,27.13,1111122 
SCCF RECON,ioos:station:SCCF:56:1,2017-08-02T08:00:00Z,26.4645,-82.1044,1.59,26.53,1111122 
SCCF RECON,ioos:station:SCCF:56:1,2017-08-02T09:00:00Z,26.4645,-82.1044,1.64,26.54,1111122 
SCCF RECON,ioos:station:SCCF:56:1,2017-08-02T10:00:00Z,26.4645,-82.1044,1.776,27.52,1111122 
SCCF RECON,ioos:station:SCCF:56:1,2017-08-02T11:00:00Z,26.4645,-82.1044,1.86,27.75,1111122 
SCCF RECON,ioos:station:SCCF:56:1,2017-08-02T12:00:00Z,26.4645,-82.1044,1.92,27.82,1111122 
SCCF RECON,ioos:station:SCCF:56:1,2017-08-02T13:00:00Z,26.4645,-82.1044,1.971,27.97,1111122 
SCCF RECON,ioos:station:SCCF:56:1,2017-08-02T14:00:00Z,26.4645,-82.1044,1.976,27.91,1111122 
SCCF RECON,ioos:station:SCCF:56:1,2017-08-02T15:00:00Z,26.4645,-82.1044,1.93,27.73,1111122 
SCCF RECON,ioos:station:SCCF:56:1,2017-08-02T16:00:00Z,26.4645,-82.1044,1.861,27.26,1111122 
SCCF RECON,ioos:station:SCCF:56:1,2017-08-02T17:00:00Z,26.4645,-82.1044,1.757,27.44,1111122 
SCCF RECON,ioos:station:SCCF:56:1,2017-08-02T18:00:00Z,26.4645,-82.1044,1.642,26.8,1111122 
SCCF RECON,ioos:station:SCCF:56:1,2017-08-02T19:00:00Z,26.4645,-82.1044,1.53,26.32,1111122 
SCCF RECON,ioos:station:SCCF:56:1,2017-08-02T20:00:00Z,26.4645,-82.1044,1.42,25.91,1111122 
SCCF RECON,ioos:station:SCCF:56:1,2017-08-02T21:00:00Z,26.4645,-82.1044,1.34,25.62,1111122 
SCCF RECON,ioos:station:SCCF:56:1,2017-08-02T22:00:00Z,26.4645,-82.1044,1.357,25.5,1111122 
SCCF RECON,ioos:station:SCCF:56:1,2017-08-02T23:00:00Z,26.4645,-82.1044,1.43,25.88,1111122 
SCCF RECON,ioos:station:SCCF:56:1,2017-08-03T00:00:00Z,26.4645,-82.1044,1.57,27.65,1111122 
SCCF RECON,ioos:station:SCCF:56:1,2017-08-03T01:00:00Z,26.4645,-82.1044,1.66,27.8,1111122 
SCCF RECON,ioos:station:SCCF:56:1,2017-08-03T02:00:00Z,26.4645,-82.1044,1.703,27.83,1111122 
SCCF RECON,ioos:station:SCCF:56:1,2017-08-03T03:00:00Z,26.4645,-82.1044,1.78,27.83,1111122 
SCCF RECON,ioos:station:SCCF:56:1,2017-08-03T04:00:00Z,26.4645,-82.1044,1.829,27.84,1111122 
SCCF RECON,ioos:station:SCCF:56:1,2017-08-03T05:00:00Z,26.4645,-82.1044,1.8,27.76,1111122 
SCCF RECON,ioos:station:SCCF:56:1,2017-08-03T06:00:00Z,26.4645,-82.1044,1.75,27.73,1111122 
SCCF RECON,ioos:station:SCCF:56:1,2017-08-03T07:00:00Z,26.4645,-82.1044,1.74,27.72,1111122 
SCCF RECON,ioos:station:SCCF:56:1,2017-08-03T08:00:00Z,26.4645,-82.1044,1.7,27.61,1111122 
SCCF RECON,ioos:station:SCCF:56:1,2017-08-03T09:00:00Z,26.4645,-82.1044,1.69,27.46,1111122 
SCCF RECON,ioos:station:SCCF:56:1,2017-08-03T10:00:00Z,26.4645,-82.1044,1.72,27.24,1111122 
SCCF RECON,ioos:station:SCCF:56:1,2017-08-03T11:00:00Z,26.4645,-82.1044,1.78,27.3,1111122 
SCCF RECON,ioos:station:SCCF:56:1,2017-08-03T12:00:00Z,26.4645,-82.1044,1.86,26.86,1111122 
SCCF RECON,ioos:station:SCCF:56:1,2017-08-03T13:00:00Z,26.4645,-82.1044,1.948,26.83,1111122 
SCCF RECON,ioos:station:SCCF:56:1,2017-08-03T14:00:00Z,26.4645,-82.1044,2.0,26.99,1111122 
SCCF RECON,ioos:station:SCCF:56:1,2017-08-03T15:00:00Z,26.4645,-82.1044,2.01,27.0,1111122 
SCCF RECON,ioos:station:SCCF:56:1,2017-08-03T16:00:00Z,26.4645,-82.1044,1.96,27.06,1111122 
SCCF RECON,ioos:station:SCCF:56:1,2017-08-03T17:00:00Z,26.4645,-82.1044,1.861,27.06,1111122 
SCCF RECON,ioos:station:SCCF:56:1,2017-08-03T18:00:00Z,26.4645,-82.1044,1.75,27.06,1111122 
SCCF RECON,ioos:station:SCCF:56:1,2017-08-03T19:00:00Z,26.4645,-82.1044,1.65,27.02,1111122 
SCCF RECON,ioos:station:SCCF:56:1,2017-08-03T20:00:00Z,26.4645,-82.1044,1.53,26.88,1111122 
SCCF RECON,ioos:station:SCCF:56:1,2017-08-03T21:00:00Z,26.4645,-82.1044,1.42,26.71,1111122 
SCCF RECON,ioos:station:SCCF:56:1,2017-08-03T22:00:00Z,26.4645,-82.1044,1.34,26.58,1111122 
SCCF RECON,ioos:station:SCCF:56:1,2017-08-03T23:00:00Z,26.4645,-82.1044,1.35,26.41,1111122 
SCCF RECON,ioos:station:SCCF:56:1,2017-08-04T00:00:00Z,26.4645,-82.1044,1.48,26.9,1111122 
SCCF RECON,ioos:station:SCCF:56:1,2017-08-04T01:00:00Z,26.4645,-82.1044,1.62,27.41,1111122 
SCCF RECON,ioos:station:SCCF:56:1,2017-08-04T02:00:00Z,26.4645,-82.1044,1.716,27.51,1111122 
SCCF RECON,ioos:station:SCCF:56:1,2017-08-04T03:00:00Z,26.4645,-82.1044,1.791,27.5,1111122 
SCCF RECON,ioos:station:SCCF:56:1,2017-08-04T04:00:00Z,26.4645,-82.1044,1.85,27.18,1111122 
SCCF RECON,ioos:station:SCCF:56:1,2017-08-04T05:00:00Z,26.4645,-82.1044,1.859,27.0,1111122 
SCCF RECON,ioos:station:SCCF:56:1,2017-08-04T06:00:00Z,26.4645,-82.1044,1.83,27.15,1111122 
SCCF RECON,ioos:station:SCCF:56:1,2017-08-04T07:00:00Z,26.4645,-82.1044,1.754,27.11,1111122 
SCCF RECON,ioos:station:SCCF:56:1,2017-08-04T08:00:00Z,26.4645,-82.1044,1.68,27.25,1111122 
SCCF RECON,ioos:station:SCCF:56:1,2017-08-04T09:00:00Z,26.4645,-82.1044,1.62,27.17,1111122 
SCCF RECON,ioos:station:SCCF:56:1,2017-08-04T10:00:00Z,26.4645,-82.1044,1.6,27.14,1111122 
SCCF RECON,ioos:station:SCCF:56:1,2017-08-04T11:00:00Z,26.4645,-82.1044,1.67,27.17,1111122 
SCCF RECON,ioos:station:SCCF:56:1,2017-08-04T12:00:00Z,26.4645,-82.1044,1.77,26.51,1111122 
SCCF RECON,ioos:station:SCCF:56:1,2017-08-04T13:00:00Z,26.4645,-82.1044,1.872,26.48,1111122 
SCCF RECON,ioos:station:SCCF:56:1,2017-08-04T14:00:00Z,26.4645,-82.1044,1.948,26.57,1111122 
SCCF RECON,ioos:station:SCCF:56:1,2017-08-04T15:00:00Z,26.4645,-82.1044,1.99,26.52,1111122 
SCCF RECON,ioos:station:SCCF:56:1,2017-08-04T16:00:00Z,26.4645,-82.1044,2.0,26.52,1111122 
SCCF RECON,ioos:station:SCCF:56:1,2017-08-04T17:00:00Z,26.4645,-82.1044,1.95,26.62,1111122 
SCCF RECON,ioos:station:SCCF:56:1,2017-08-04T18:00:00Z,26.4645,-82.1044,1.832,26.6,1111122 
SCCF RECON,ioos:station:SCCF:56:1,2017-08-04T19:00:00Z,26.4645,-82.1044,1.693,26.69,1111122 
SCCF RECON,ioos:station:SCCF:56:1,2017-08-04T20:00:00Z,26.4645,-82.1044,1.56,26.77,1111122 
SCCF RECON,ioos:station:SCCF:56:1,2017-08-04T21:00:00Z,26.4645,-82.1044,1.46,26.81,1111122 
SCCF RECON,ioos:station:SCCF:56:1,2017-08-04T22:00:00Z,26.4645,-82.1044,1.37,26.8,1111122 
SCCF RECON,ioos:station:SCCF:56:1,2017-08-04T23:00:00Z,26.4645,-82.1044,1.31,26.78,1111122 
SCCF RECON,ioos:station:SCCF:56:1,2017-08-05T00:00:00Z,26.4645,-82.1044,1.341,26.69,1111122 
SCCF RECON,ioos:station:SCCF:56:1,2017-08-05T01:00:00Z,26.4645,-82.1044,1.5,26.84,1111122 
SCCF RECON,ioos:station:SCCF:56:1,2017-08-05T02:00:00Z,26.4645,-82.1044,1.66,26.77,1111122 
SCCF RECON,ioos:station:SCCF:56:1,2017-08-05T03:00:00Z,26.4645,-82.1044,1.77,26.72,1111122 
SCCF RECON,ioos:station:SCCF:56:1,2017-08-05T04:00:00Z,26.4645,-82.1044,1.85,26.74,1111122 
SCCF RECON,ioos:station:SCCF:56:1,2017-08-05T05:00:00Z,26.4645,-82.1044,1.901,26.72,1111122 
SCCF RECON,ioos:station:SCCF:56:1,2017-08-05T06:00:00Z,26.4645,-82.1044,1.91,26.51,1111122 
SCCF RECON,ioos:station:SCCF:56:1,2017-08-05T07:00:00Z,26.4645,-82.1044,1.86,26.66,1111122 
SCCF RECON,ioos:station:SCCF:56:1,2017-08-05T08:00:00Z,26.4645,-82.1044,1.77,26.75,1111122 
SCCF RECON,ioos:station:SCCF:56:1,2017-08-05T09:00:00Z,26.4645,-82.1044,1.74,26.76,1111122 
SCCF RECON,ioos:station:SCCF:56:1,2017-08-05T10:00:00Z,26.4645,-82.1044,1.738,26.77,1111122 
SCCF RECON,ioos:station:SCCF:56:1,2017-08-05T11:00:00Z,26.4645,-82.1044,1.73,26.77,1111122 
SCCF RECON,ioos:station:SCCF:56:1,2017-08-05T12:00:00Z,26.4645,-82.1044,1.78,26.77,1111122 
SCCF RECON,ioos:station:SCCF:56:1,2017-08-05T13:00:00Z,26.4645,-82.1044,1.89,24.89,1111122 
SCCF RECON,ioos:station:SCCF:56:1,2017-08-05T14:00:00Z,26.4645,-82.1044,1.994,25.11,1111122 
SCCF RECON,ioos:station:SCCF:56:1,2017-08-05T15:00:00Z,26.4645,-82.1044,2.06,25.21,1111122 
SCCF RECON,ioos:station:SCCF:56:1,2017-08-05T16:00:00Z,26.4645,-82.1044,2.09,25.96,1111122 
SCCF RECON,ioos:station:SCCF:56:1,2017-08-05T17:00:00Z,26.4645,-82.1044,2.09,25.89,1111122 
SCCF RECON,ioos:station:SCCF:56:1,2017-08-05T18:00:00Z,26.4645,-82.1044,1.99,26.17,1111122 
SCCF RECON,ioos:station:SCCF:56:1,2017-08-05T19:00:00Z,26.4645,-82.1044,1.845,26.07,1111122 
SCCF RECON,ioos:station:SCCF:56:1,2017-08-05T20:00:00Z,26.4645,-82.1044,1.69,26.29,1111122 
SCCF RECON,ioos:station:SCCF:56:1,2017-08-05T21:00:00Z,26.4645,-82.1044,1.559,26.51,1111122 
SCCF RECON,ioos:station:SCCF:56:1,2017-08-05T22:00:00Z,26.4645,-82.1044,1.44,26.63,1111122 
SCCF RECON,ioos:station:SCCF:56:1,2017-08-05T23:00:00Z,26.4645,-82.1044,1.339,26.68,1111122 
SCCF RECON,ioos:station:SCCF:56:1,2017-08-06T00:00:00Z,26.4645,-82.1044,1.28,26.7,1111122 
SCCF RECON,ioos:station:SCCF:56:1,2017-08-06T01:00:00Z,26.4645,-82.1044,1.37,26.7,1111122 
SCCF RECON,ioos:station:SCCF:56:1,2017-08-06T02:00:00Z,26.4645,-82.1044,1.52,26.61,1111122 
SCCF RECON,ioos:station:SCCF:56:1,2017-08-06T03:00:00Z,26.4645,-82.1044,1.66,26.37,1111122 
SCCF RECON,ioos:station:SCCF:56:1,2017-08-06T04:00:00Z,26.4645,-82.1044,1.79,26.3,1111122 
SCCF RECON,ioos:station:SCCF:56:1,2017-08-06T05:00:00Z,26.4645,-82.1044,1.86,26.29,1111122 
SCCF RECON,ioos:station:SCCF:56:1,2017-08-06T06:00:00Z,26.4645,-82.1044,1.881,26.29,1111122 
SCCF RECON,ioos:station:SCCF:56:1,2017-08-06T07:00:00Z,26.4645,-82.1044,1.84,26.36,1111122 
SCCF RECON,ioos:station:SCCF:56:1,2017-08-06T08:00:00Z,26.4645,-82.1044,1.752,26.43,1111122 
SCCF RECON,ioos:station:SCCF:56:1,2017-08-06T09:00:00Z,26.4645,-82.1044,1.67,26.47,1111122 
SCCF RECON,ioos:station:SCCF:56:1,2017-08-06T10:00:00Z,26.4645,-82.1044,1.62,26.51,1111122 
SCCF RECON,ioos:station:SCCF:56:1,2017-08-06T11:00:00Z,26.4645,-82.1044,1.6,26.55,1111122 
SCCF RECON,ioos:station:SCCF:56:1,2017-08-06T12:00:00Z,26.4645,-82.1044,1.658,26.51,1111122 
SCCF RECON,ioos:station:SCCF:56:1,2017-08-06T13:00:00Z,26.4645,-82.1044,1.772,25.74,1111122 
SCCF RECON,ioos:station:SCCF:56:1,2017-08-06T14:00:00Z,26.4645,-82.1044,1.91,25.82,1111122 
SCCF RECON,ioos:station:SCCF:56:1,2017-08-06T15:00:00Z,26.4645,-82.1044,2.01,25.64,1111122 
SCCF RECON,ioos:station:SCCF:56:1,2017-08-06T16:00:00Z,26.4645,-82.1044,2.069,25.62,1111122 
SCCF RECON,ioos:station:SCCF:56:1,2017-08-06T17:00:00Z,26.4645,-82.1044,2.07,25.71,1111122 
SCCF RECON,ioos:station:SCCF:56:1,2017-08-06T18:00:00Z,26.4645,-82.1044,2.0,25.84,1111122 
SCCF RECON,ioos:station:SCCF:56:1,2017-08-06T19:00:00Z,26.4645,-82.1044,1.89,25.74,1111122 
SCCF RECON,ioos:station:SCCF:56:1,2017-08-06T20:00:00Z,26.4645,-82.1044,1.8,25.86,1111122 
SCCF RECON,ioos:station:SCCF:56:1,2017-08-06T21:00:00Z,26.4645,-82.1044,1.61,26.11,1111122 
SCCF RECON,ioos:station:SCCF:56:1,2017-08-06T22:00:00Z,26.4645,-82.1044,1.47,26.26,1111122 
SCCF RECON,ioos:station:SCCF:56:1,2017-08-06T23:00:00Z,26.4645,-82.1044,1.37,26.39,1111122 
SCCF RECON,ioos:station:SCCF:56:1,2017-08-07T00:00:00Z,26.4645,-82.1044,1.28,26.45,1111122 
SCCF RECON,ioos:station:SCCF:56:1,2017-08-07T01:00:00Z,26.4645,-82.1044,1.251,26.48,1111122 
SCCF RECON,ioos:station:SCCF:56:1,2017-08-07T02:00:00Z,26.4645,-82.1044,1.4,26.18,1111122 
SCCF RECON,ioos:station:SCCF:56:1,2017-08-07T03:00:00Z,26.4645,-82.1044,1.568,26.02,1111122 
SCCF RECON,ioos:station:SCCF:56:1,2017-08-07T04:00:00Z,26.4645,-82.1044,1.72,25.95,1111122 
SCCF RECON,ioos:station:SCCF:56:1,2017-08-07T05:00:00Z,26.4645,-82.1044,1.82,25.92,1111122 
SCCF RECON,ioos:station:SCCF:56:1,2017-08-07T06:00:00Z,26.4645,-82.1044,1.85,25.85,1111122 
SCCF RECON,ioos:station:SCCF:56:1,2017-08-07T07:00:00Z,26.4645,-82.1044,1.83,25.89,1111122 
SCCF RECON,ioos:station:SCCF:56:1,2017-08-07T08:00:00Z,26.4645,-82.1044,1.778,26.04,1111122 
SCCF RECON,ioos:station:SCCF:56:1,2017-08-07T09:00:00Z,26.4645,-82.1044,1.7,25.89,1111122 
SCCF RECON,ioos:station:SCCF:56:1,2017-08-07T10:00:00Z,26.4645,-82.1044,1.66,25.94,1111122 
SCCF RECON,ioos:station:SCCF:56:1,2017-08-07T11:00:00Z,26.4645,-82.1044,1.64,26.06,1111122 
SCCF RECON,ioos:station:SCCF:56:1,2017-08-07T12:00:00Z,26.4645,-82.1044,1.67,26.02,1111122 
SCCF RECON,ioos:station:SCCF:56:1,2017-08-07T13:00:00Z,26.4645,-82.1044,1.741,25.31,1111122 
SCCF RECON,ioos:station:SCCF:56:1,2017-08-07T14:00:00Z,26.4645,-82.1044,1.86,25.31,1111122 
SCCF RECON,ioos:station:SCCF:56:1,2017-08-07T15:00:00Z,26.4645,-82.1044,1.969,25.16,1111122 
SCCF RECON,ioos:station:SCCF:56:1,2017-08-07T16:00:00Z,26.4645,-82.1044,2.06,24.99,1111122 
SCCF RECON,ioos:station:SCCF:56:1,2017-08-07T17:00:00Z,26.4645,-82.1044,2.11,25.0,1111122 
SCCF RECON,ioos:station:SCCF:56:1,2017-08-07T18:00:00Z,26.4645,-82.1044,2.11,24.94,1111122 
SCCF RECON,ioos:station:SCCF:56:1,2017-08-07T19:00:00Z,26.4645,-82.1044,2.01,25.08,1111122 
SCCF RECON,ioos:station:SCCF:56:1,2017-08-07T20:00:00Z,26.4645,-82.1044,1.857,25.24,1111122 
SCCF RECON,ioos:station:SCCF:56:1,2017-08-07T21:00:00Z,26.4645,-82.1044,1.7,25.45,1111122 
SCCF RECON,ioos:station:SCCF:56:1,2017-08-07T22:00:00Z,26.4645,-82.1044,1.56,25.76,1111122 
SCCF RECON,ioos:station:SCCF:56:1,2017-08-07T23:00:00Z,26.4645,-82.1044,1.439,25.91,1111122 
SCCF RECON,ioos:station:SCCF:56:1,2017-08-08T00:00:00Z,26.4645,-82.1044,1.35,26.02,1111122 
SCCF RECON,ioos:station:SCCF:56:1,2017-08-08T01:00:00Z,26.4645,-82.1044,1.26,26.1,1111122 
SCCF RECON,ioos:station:SCCF:56:1,2017-08-08T02:00:00Z,26.4645,-82.1044,1.347,25.98,1111122 
SCCF RECON,ioos:station:SCCF:56:1,2017-08-08T03:00:00Z,26.4645,-82.1044,1.551,25.77,1111122 
SCCF RECON,ioos:station:SCCF:56:1,2017-08-08T04:00:00Z,26.4645,-82.1044,1.7,25.18,1111122 
SCCF RECON,ioos:station:SCCF:56:1,2017-08-08T05:00:00Z,26.4645,-82.1044,1.804,25.25,1111122 
SCCF RECON,ioos:station:SCCF:56:1,2017-08-08T06:00:00Z,26.4645,-82.1044,1.86,25.08,1111122 
SCCF RECON,ioos:station:SCCF:56:1,2017-08-08T07:00:00Z,26.4645,-82.1044,1.88,25.11,1111122 
SCCF RECON,ioos:station:SCCF:56:1,2017-08-08T08:00:00Z,26.4645,-82.1044,1.81,25.19,1111122 
SCCF RECON,ioos:station:SCCF:56:1,2017-08-08T09:00:00Z,26.4645,-82.1044,1.73,25.25,1111122 
SCCF RECON,ioos:station:SCCF:56:1,2017-08-08T10:00:00Z,26.4645,-82.1044,1.64,25.31,1111122 
SCCF RECON,ioos:station:SCCF:56:1,2017-08-08T11:00:00Z,26.4645,-82.1044,1.57,25.38,1111122 
SCCF RECON,ioos:station:SCCF:56:1,2017-08-08T12:00:00Z,26.4645,-82.1044,1.54,25.43,1111122 
SCCF RECON,ioos:station:SCCF:56:1,2017-08-08T13:00:00Z,26.4645,-82.1044,1.618,25.42,1111122 
SCCF RECON,ioos:station:SCCF:56:1,2017-08-08T14:00:00Z,26.4645,-82.1044,1.742,25.06,1111122 
SCCF RECON,ioos:station:SCCF:56:1,2017-08-08T15:00:00Z,26.4645,-82.1044,1.885,25.04,1111122 
SCCF RECON,ioos:station:SCCF:56:1,2017-08-08T16:00:00Z,26.4645,-82.1044,1.98,25.05,1111122 
SCCF RECON,ioos:station:SCCF:56:1,2017-08-08T17:00:00Z,26.4645,-82.1044,2.05,25.08,1111122 
SCCF RECON,ioos:station:SCCF:56:1,2017-08-08T18:00:00Z,26.4645,-82.1044,2.07,25.14,1111122 
SCCF RECON,ioos:station:SCCF:56:1,2017-08-08T19:00:00Z,26.4645,-82.1044,2.043,25.15,1111122 
SCCF RECON,ioos:station:SCCF:56:1,2017-08-08T20:00:00Z,26.4645,-82.1044,1.94,25.11,1111122 
SCCF RECON,ioos:station:SCCF:56:1,2017-08-08T21:00:00Z,26.4645,-82.1044,1.781,25.09,1111122 
SCCF RECON,ioos:station:SCCF:56:1,2017-08-08T22:00:00Z,26.4645,-82.1044,1.63,25.18,1111122 
SCCF RECON,ioos:station:SCCF:56:1,2017-08-08T23:00:00Z,26.4645,-82.1044,1.498,25.27,1111122 
SCCF RECON,ioos:station:SCCF:56:1,2017-08-09T00:00:00Z,26.4645,-82.1044,1.39,25.37,1111122 
SCCF RECON,ioos:station:SCCF:56:1,2017-08-09T01:00:00Z,26.4645,-82.1044,1.287,25.44,1111122 
SCCF RECON,ioos:station:SCCF:56:1,2017-08-09T02:00:00Z,26.4645,-82.1044,1.29,25.49,1111122 
SCCF RECON,ioos:station:SCCF:56:1,2017-08-09T03:00:00Z,26.4645,-82.1044,1.46,25.45,1111122 
SCCF RECON,ioos:station:SCCF:56:1,2017-08-09T04:00:00Z,26.4645,-82.1044,1.65,25.53,1111122 
SCCF RECON,ioos:station:SCCF:56:1,2017-08-09T05:00:00Z,26.4645,-82.1044,1.77,25.64,1111122 
SCCF RECON,ioos:station:SCCF:56:1,2017-08-09T06:00:00Z,26.4645,-82.1044,1.84,25.58,1111122 
SCCF RECON,ioos:station:SCCF:56:1,2017-08-09T07:00:00Z,26.4645,-82.1044,1.89,25.59,1111122 
SCCF RECON,ioos:station:SCCF:56:1,2017-08-09T08:00:00Z,26.4645,-82.1044,1.88,25.59,1111122 
SCCF RECON,ioos:station:SCCF:56:1,2017-08-09T09:00:00Z,26.4645,-82.1044,1.79,25.62,1111122 
SCCF RECON,ioos:station:SCCF:56:1,2017-08-09T10:00:00Z,26.4645,-82.1044,1.68,25.64,1111122 
SCCF RECON,ioos:station:SCCF:56:1,2017-08-09T11:00:00Z,26.4645,-82.1044,1.62,25.65,1111122 
SCCF RECON,ioos:station:SCCF:56:1,2017-08-09T12:00:00Z,26.4645,-82.1044,1.574,25.66,1111122 
SCCF RECON,ioos:station:SCCF:56:1,2017-08-09T13:00:00Z,26.4645,-82.1044,1.56,25.66,1111122 
SCCF RECON,ioos:station:SCCF:56:1,2017-08-09T14:00:00Z,26.4645,-82.1044,1.611,25.64,1111122 
SCCF RECON,ioos:station:SCCF:56:1,2017-08-09T15:00:00Z,26.4645,-82.1044,1.74,25.66,1111122 
SCCF RECON,ioos:station:SCCF:56:1,2017-08-09T16:00:00Z,26.4645,-82.1044,1.89,25.46,1111122 
SCCF RECON,ioos:station:SCCF:56:1,2017-08-09T17:00:00Z,26.4645,-82.1044,2.0,25.42,1111122 
SCCF RECON,ioos:station:SCCF:56:1,2017-08-09T18:00:00Z,26.4645,-82.1044,2.069,25.49,1111122 
SCCF RECON,ioos:station:SCCF:56:1,2017-08-09T19:00:00Z,26.4645,-82.1044,2.077,25.53,1111122 
SCCF RECON,ioos:station:SCCF:56:1,2017-08-09T20:00:00Z,26.4645,-82.1044,1.98,25.51,1111122 
SCCF RECON,ioos:station:SCCF:56:1,2017-08-09T21:00:00Z,26.4645,-82.1044,1.85,25.56,1111122 
SCCF RECON,ioos:station:SCCF:56:1,2017-08-09T22:00:00Z,26.4645,-82.1044,1.689,25.49,1111122 
SCCF RECON,ioos:station:SCCF:56:1,2017-08-09T23:00:00Z,26.4645,-82.1044,1.553,25.49,1111122 
SCCF RECON,ioos:station:SCCF:56:1,2017-08-10T00:00:00Z,26.4645,-82.1044,1.44,25.47,1111122 
SCCF RECON,ioos:station:SCCF:56:1,2017-08-10T01:00:00Z,26.4645,-82.1044,1.35,25.5,1111122 
SCCF RECON,ioos:station:SCCF:56:1,2017-08-10T02:00:00Z,26.4645,-82.1044,1.298,25.54,1111122 
SCCF RECON,ioos:station:SCCF:56:1,2017-08-10T03:00:00Z,26.4645,-82.1044,1.36,25.57,1111122 
SCCF RECON,ioos:station:SCCF:56:1,2017-08-10T04:00:00Z,26.4645,-82.1044,1.518,25.56,1111122 
SCCF RECON,ioos:station:SCCF:56:1,2017-08-10T05:00:00Z,26.4645,-82.1044,1.66,25.55,1111122 
SCCF RECON,ioos:station:SCCF:56:1,2017-08-10T06:00:00Z,26.4645,-82.1044,1.77,25.58,1111122 
SCCF RECON,ioos:station:SCCF:56:1,2017-08-10T07:00:00Z,26.4645,-82.1044,1.84,25.61,1111122 
SCCF RECON,ioos:station:SCCF:56:1,2017-08-10T08:00:00Z,26.4645,-82.1044,1.859,25.53,1111122 
SCCF RECON,ioos:station:SCCF:56:1,2017-08-10T09:00:00Z,26.4645,-82.1044,1.81,25.61,1111122 
SCCF RECON,ioos:station:SCCF:56:1,2017-08-10T10:00:00Z,26.4645,-82.1044,1.72,25.64,1111122 
SCCF RECON,ioos:station:SCCF:56:1,2017-08-10T11:00:00Z,26.4645,-82.1044,1.626,25.66,1111122 
SCCF RECON,ioos:station:SCCF:56:1,2017-08-10T12:00:00Z,26.4645,-82.1044,1.54,25.67,1111122 
SCCF RECON,ioos:station:SCCF:56:1,2017-08-10T13:00:00Z,26.4645,-82.1044,1.49,25.68,1111122 
SCCF RECON,ioos:station:SCCF:56:1,2017-08-10T14:00:00Z,26.4645,-82.1044,1.48,25.72,1111122 
SCCF RECON,ioos:station:SCCF:56:1,2017-08-10T15:00:00Z,26.4645,-82.1044,1.58,25.71,1111122 
SCCF RECON,ioos:station:SCCF:56:1,2017-08-10T16:00:00Z,26.4645,-82.1044,1.73,25.61,1111122 
SCCF RECON,ioos:station:SCCF:56:1,2017-08-10T17:00:00Z,26.4645,-82.1044,1.86,25.46,1111122 
SCCF RECON,ioos:station:SCCF:56:1,2017-08-10T18:00:00Z,26.4645,-82.1044,1.948,25.34,1111122 
SCCF RECON,ioos:station:SCCF:56:1,2017-08-10T19:00:00Z,26.4645,-82.1044,1.991,25.35,1111122 
SCCF RECON,ioos:station:SCCF:56:1,2017-08-10T20:00:00Z,26.4645,-82.1044,1.97,25.37,1111122 
SCCF RECON,ioos:station:SCCF:56:1,2017-08-10T21:00:00Z,26.4645,-82.1044,1.878,25.39,1111122 
SCCF RECON,ioos:station:SCCF:56:1,2017-08-10T22:00:00Z,26.4645,-82.1044,1.738,25.48,1111122 
SCCF RECON,ioos:station:SCCF:56:1,2017-08-10T23:00:00Z,26.4645,-82.1044,1.599,25.57,1111122 
SCCF RECON,ioos:station:SCCF:56:1,2017-08-11T00:00:00Z,26.4645,-82.1044,1.48,25.64,1111122 
SCCF RECON,ioos:station:SCCF:56:1,2017-08-11T01:00:00Z,26.4645,-82.1044,1.389,25.68,1111122 
SCCF RECON,ioos:station:SCCF:56:1,2017-08-11T02:00:00Z,26.4645,-82.1044,1.296,25.71,1111122 
SCCF RECON,ioos:station:SCCF:56:1,2017-08-11T03:00:00Z,26.4645,-82.1044,1.25,25.74,1111122 
SCCF RECON,ioos:station:SCCF:56:1,2017-08-11T04:00:00Z,26.4645,-82.1044,1.36,25.74,1111122 
SCCF RECON,ioos:station:SCCF:56:1,2017-08-11T05:00:00Z,26.4645,-82.1044,1.54,25.57,1111122 
SCCF RECON,ioos:station:SCCF:56:1,2017-08-11T06:00:00Z,26.4645,-82.1044,1.71,25.49,1111122 
SCCF RECON,ioos:station:SCCF:56:1,2017-08-11T07:00:00Z,26.4645,-82.1044,1.81,25.49,1111122 
SCCF RECON,ioos:station:SCCF:56:1,2017-08-11T08:00:00Z,26.4645,-82.1044,1.85,25.52,1111122 
SCCF RECON,ioos:station:SCCF:56:1,2017-08-11T09:00:00Z,26.4645,-82.1044,1.87,25.47,1111122 
SCCF RECON,ioos:station:SCCF:56:1,2017-08-11T10:00:00Z,26.4645,-82.1044,1.85,25.5,1111122 
SCCF RECON,ioos:station:SCCF:56:1,2017-08-11T11:00:00Z,26.4645,-82.1044,1.67,25.57,1111122 
SCCF RECON,ioos:station:SCCF:56:1,2017-08-11T12:00:00Z,26.4645,-82.1044,1.534,25.62,1111122 
SCCF RECON,ioos:station:SCCF:56:1,2017-08-11T13:00:00Z,26.4645,-82.1044,1.449,25.66,1111122 
SCCF RECON,ioos:station:SCCF:56:1,2017-08-11T14:00:00Z,26.4645,-82.1044,1.43,25.67,1111122 
SCCF RECON,ioos:station:SCCF:56:1,2017-08-11T15:00:00Z,26.4645,-82.1044,1.433,25.67,1111122 
SCCF RECON,ioos:station:SCCF:56:1,2017-08-11T16:00:00Z,26.4645,-82.1044,1.53,25.67,1111122 
SCCF RECON,ioos:station:SCCF:56:1,2017-08-11T17:00:00Z,26.4645,-82.1044,1.68,25.55,1111122 
SCCF RECON,ioos:station:SCCF:56:1,2017-08-11T18:00:00Z,26.4645,-82.1044,1.787,25.5,1111122 